HS5XHC-1 Weather Reports


time (UTC)temp
C
wind
direction
speed
KPH
gust
KPH
rain 1hr
cm
rain 24hr
cm
rain mn
cm
humidity
%
barometer
mb
20260504205509 27 0 0.0 0.0 0.00 0.00 0.00 55 969.0
20260504204445 27 0 0.0 0.0 0.00 0.00 0.00 55 969.0
20260504203421 27 0 0.0 0.0 0.00 0.00 0.00 55 969.0
20260504202357 27 0 0.0 0.0 0.00 0.00 0.00 54 969.0
20260504201332 27 0 0.0 0.0 0.00 0.00 0.00 55 969.0
20260504200309 27 0 0.0 0.0 0.00 0.00 0.00 53 969.0
20260504195908 27 0 0.0 0.0 0.00 0.00 0.00 55 969.0
20260504194844 27 0 0.0 0.0 0.00 0.00 0.00 54 969.0
20260504193821 28 0 0.0 0.0 0.00 0.00 0.00 53 969.0
20260504192757 27 0 0.0 0.0 0.00 0.00 0.00 53 970.0
20260504191732 27 0 0.0 0.0 0.00 0.00 0.00 53 969.0
20260504190708 26 0 0.0 0.0 0.00 0.00 0.00 56 969.0
20260504185644 27 0 0.0 0.0 0.00 0.00 0.00 53 969.0
20260504184620 27 0 0.0 0.0 0.00 0.00 0.00 51 969.0
20260504183557 28 0 0.0 0.0 0.00 0.00 0.00 51 969.0
20260504182532 28 0 0.0 0.0 0.00 0.00 0.00 51 969.0
20260504181509 28 0 0.0 0.0 0.00 0.00 0.00 51 969.0
20260504180445 28 0 0.0 0.0 0.00 0.00 0.00 51 969.0
20260504175420 28 0 0.0 0.0 0.00 0.00 0.00 49 969.0
20260504174356 27 0 0.0 0.0 0.00 0.00 0.00 49 969.0
20260504173332 27 0 0.0 0.0 0.00 0.00 0.00 50 969.0
20260504172308 27 0 0.0 0.0 0.00 0.00 0.00 52 969.0
20260504171244 27 0 0.0 0.0 0.00 0.00 0.00 51 970.0
20260504170220 28 0 0.0 0.0 0.00 0.00 0.00 51 970.0
20260504150730 32 0 0.0 0.0 0.00 0.00 0.00 41 967.0
20260504140506 34 0 0.0 0.0 0.00 0.00 0.00 34 966.0
20260504130242 35 0 0.0 0.0 0.00 0.00 0.00 31 965.0
20260504100553 37 0 0.0 0.0 0.00 0.00 0.00 25 963.0
20260504081129 37 0 0.0 0.0 0.00 0.00 0.00 25 965.0
20260504080105 36 0 0.0 0.0 0.00 0.00 0.00 27 965.0
20260504050418 33 0 0.0 0.0 0.00 0.00 0.00 36 968.0
20260504045354 33 0 0.0 0.0 0.00 0.00 0.00 36 969.0
20260504044330 32 0 0.0 0.0 0.00 0.00 0.00 36 969.0
20260504043306 32 0 0.0 0.0 0.00 0.00 0.00 37 969.0
20260504042242 31 0 0.0 0.0 0.00 0.00 0.00 39 969.0
20260504041218 31 0 0.0 0.0 0.00 0.00 0.00 41 969.0
20260504040155 31 0 0.0 0.0 0.00 0.00 0.00 40 969.0
20260504035130 31 0 0.0 0.0 0.00 0.00 0.00 42 969.0
20260504034106 30 0 0.0 0.0 0.00 0.00 0.00 42 969.0
20260504033042 29 0 0.0 0.0 0.00 0.00 0.00 45 970.0
20260504032018 29 0 0.0 0.0 0.00 0.00 0.00 47 970.0
20260504030954 29 0 0.0 0.0 0.00 0.00 0.00 46 970.0
20260504025930 29 0 0.0 0.0 0.00 0.00 0.00 49 970.0
20260504024906 28 0 0.0 0.0 0.00 0.00 0.00 50 970.0
20260504023842 28 0 0.0 0.0 0.00 0.00 0.00 51 970.0
20260504022818 28 0 0.0 0.0 0.00 0.00 0.00 52 970.0
20260504021754 27 0 0.0 0.0 0.00 0.00 0.00 54 970.0
20260504020730 27 0 0.0 0.0 0.00 0.00 0.00 55 970.0
20260504015706 27 0 0.0 0.0 0.00 0.00 0.00 55 970.0
20260504014642 27 0 0.0 0.0 0.00 0.00 0.00 57 970.0
20260504013618 26 0 0.0 0.0 0.00 0.00 0.00 58 970.0
20260504012554 27 0 0.0 0.0 0.00 0.00 0.00 58 969.0
20260504011530 26 0 0.0 0.0 0.00 0.00 0.00 59 969.0
20260504010506 26 0 0.0 0.0 0.00 0.00 0.00 57 969.0
20260504004418 26 0 0.0 0.0 0.00 0.00 0.00 57 969.0
20260504003354 27 0 0.0 0.0 0.00 0.00 0.00 56 969.0
20260504002329 27 0 0.0 0.0 0.00 0.00 0.00 57 969.0
20260504001305 26 0 0.0 0.0 0.00 0.00 0.00 58 969.0
20260504000241 27 0 0.0 0.0 0.00 0.00 0.00 56 968.0
20260503235217 25 0 0.0 0.0 0.00 0.00 0.00 60 968.0
20260503234153 26 0 0.0 0.0 0.00 0.00 0.00 60 968.0
20260503233129 26 0 0.0 0.0 0.00 0.00 0.00 60 968.0
20260503232105 26 0 0.0 0.0 0.00 0.00 0.00 58 968.0
20260503231042 27 0 0.0 0.0 0.00 0.00 0.00 55 968.0
20260503230018 27 0 0.0 0.0 0.00 0.00 0.00 54 968.0
20260503224954 27 0 0.0 0.0 0.00 0.00 0.00 54 968.0
20260503223929 27 0 0.0 0.0 0.00 0.00 0.00 54 968.0
20260503222905 27 0 0.0 0.0 0.00 0.00 0.00 54 968.0
20260503221841 27 0 0.0 0.0 0.00 0.00 0.00 54 968.0
20260503220817 27 0 0.0 0.0 0.00 0.00 0.00 53 967.0
20260503215753 27 0 0.0 0.0 0.00 0.00 0.00 54 967.0
20260503214729 27 0 0.0 0.0 0.00 0.00 0.00 53 967.0
20260503213705 27 0 0.0 0.0 0.00 0.00 0.00 54 967.0
20260503212641 26 0 0.0 0.0 0.00 0.00 0.00 55 967.0
20260503211618 27 0 0.0 0.0 0.00 0.00 0.00 55 967.0
20260503210554 26 0 0.0 0.0 0.00 0.00 0.00 57 967.0